Miscellaneous Local Product
Issued by NWS Hastings, NE

Home | Current Version | Previous Version | Text Only | Print | Product List | Glossary On
Versions: 1 2 3 4 5 6 7 8 9 10 11 12 13 14 15 16 17 18 19 20 21 22 23 24 25 26 27 28 29 30 31 32 33 34 35 36 37 38 39 40 41 42 43 44 45 46 47 48 49 50
000
AXUS43 KGID 210202
MISGRI

GID CWA HOURLY WEATHER ROUNDUP
NATIONAL WEATHER SERVICE HASTINGS NE
800 PM CST SAT DEC 20 2014

NOTE: "FAIR" INDICATES FEW OR NO CLOUDS BELOW 12,000 FEET WITH NO
SIGNIFICANT WEATHER AND/OR OBSTRUCTIONS TO VISIBILITY.

...SOUTH CENTRAL NEBRASKA...

CITY           SKY/WX    TMP DP  RH WIND       PRES   REMARKS
GRAND ISLAND   PTCLDY    31  30  96 S5        29.99F FOG     WCI  26
HASTINGS       PTCLDY    33  31  92 S7        29.97F WCI  27
KEARNEY        PTCLDY    28  27  93 SE7       29.96F WCI  21
ORD            NOT AVBL
YORK           FOG       32  32 100 CALM      30.01F VSB 1/4
AURORA         FOG       31  31 100 SE6       29.99F VSB 1/4 WCI  25
LEXINGTON      CLEAR     35  31  85 SW3       29.95F
HOLDREGE       FAIR      37  31  78 SW5       29.96F WCI  34
HEBRON         MOCLDY    32  31  95 CALM      30.01F FOG

...NEBRASKA PANHANDLE...

CITY           SKY/WX    TMP DP  RH WIND       PRES   REMARKS
CHADRON        PTCLDY    29  25  85 W5        29.90S WCI  24
ALLIANCE       CLEAR     26  24  92 S3        29.90S
SCOTTSBLUFF    MOCLDY    30  22  72 NW3       29.92S
SIDNEY         MOCLDY    31  25  78 SW10      29.94F WCI  22

...WESTERN AND NORTH CENTRAL NEBRASKA...

CITY           SKY/WX    TMP DP  RH WIND       PRES   REMARKS
VALENTINE      CLEAR     26  23  88 W5        29.90F WCI  20
AINSWORTH      CLEAR     27  25  92 SW5       29.90S WCI  21
ONEILL         FOG       31  31 100 S7        29.93F VSB 3/4 WCI  24
BROKEN BOW     CLEAR     30  27  88 CALM      29.93S
IMPERIAL       PTCLDY    34  26  72 SW5       29.95S WCI  30
NORTH PLATTE   CLEAR     27  24  89 CALM      29.94S
MCCOOK         CLEAR     33  28  81 SW10      29.95F WCI  25

...EASTERN NEBRASKA...

CITY           SKY/WX    TMP DP  RH WIND       PRES   REMARKS
NORFOLK        CLOUDY    32  30  92 S12       29.99F FOG     WCI  23
SO SIOUX CITY  CLOUDY    33  31  92 S15       30.04F FOG     WCI  23
TEKAMAH        CLOUDY    33  31  92 SE10      30.06F FOG     WCI  25
COLUMBUS       CLOUDY    32  28  86 S8        30.03S WCI  25
ALBION         FOG       31  30  94 SE8       29.99S VSB 3/4 WCI  24
OMAHA EPPLEY   CLOUDY    35  32  88 SE8       30.07F FOG     WCI  29
OFFUTT AFB     CLOUDY    34  32  92 SE10      30.06F WCI  26
MILLARD        CLOUDY    35  32  90 SE6       30.06F WCI  30
LINCOLN        CLOUDY    35  33  92 S12       30.05F FOG     WCI  27
NEBRASKA CITY  CLOUDY    34  34 100 SE3       30.08S FOG
BEATRICE       FOG       37  36  99 SE6       30.05R VSB 3/4 WCI  32
FALLS CITY     CLOUDY    35  32  88 E3        30.09S FOG

...NORTHERN KANSAS...

CITY           SKY/WX    TMP DP  RH WIND       PRES   REMARKS
GOODLAND       MOCLDY    31  26  82 S6        29.96S WCI  25
HILL CITY      CLOUDY    43  34  70 SW7       29.98F
NORTON         CLEAR     36  27  69 SW7       29.96S WCI  30
PHILLIPSBURG   CLEAR     45  37  76 CALM      29.98F
SMITH CENTER   CLEAR     37  36  93 SE8       29.99F WCI  31
BELOIT         CLEAR     39  37  93 SE7       30.02R WCI  34
HAYS           PTCLDY    37  30  75 SW8       30.01F WCI  31
RUSSELL        PTCLDY    39  37  92 S12       30.00F WCI  32
CONCORDIA      MOCLDY    40  37  89 S20       30.01F WCI  30
SALINA         PTCLDY    40  35  83 S7        30.07R
TOPEKA         PTCLDY    42  36  79 S5        30.12R



USA.gov is the U.S. government's official web portal to all federal, state and local government web resources and services.